Погода в Кургане

Погода в Кургане : погода сейчас, прогноз погоды и архив. Всё, что Вы хотите узнать о погоде в Кургане!

Хотите узнать прогноз погоды в Кургане? Тогда Вам сюда: Погода в Кургане

Поиск расширенной информации на нашем сайте:

Другие новости

Новости СМИ2

Главная страница сайта

Новости сайта

03.07.2017

Напоминаем, что на нашем специализированном сайте Метеоцентр.Азия вы можете получить высокодетализированные автоматические прогнозы погоды по пунктам России, СНГ и мира в авиационном формате (включающие направление и скорость ветра, видимость, явления погоды, количество и форму облачности, нижнюю и верхнюю границу облачности).


Погода в Кургане - сегодня

Время (UTC), дата Ветер
(°,м/с) 
Видим.   Явления Облачность Т
(°С)
Тd
(°С)
f(%) Тe
(°С)
Pmin
(гПа)
dP
(гПа)
Po
(мм)
O2
(г/м3)
Тmin Tmax R s Состояние
почвы
15 13.01.18 200 (Ю) 10 км    ясно 
-20.7 -23.9 75 -24  1028.5  -0.5  764  335    -17.7       
18 13.01.18 200 (Ю) 10 км    ясно 
-21.6 -25 74 -25  1028.1  -0.5  763  336           
21 13.01.18 200 (Ю) 10 км    ясно 
-22.1 -25.2 76 -25  1027.7  -0.4  763  336           
00 14.01.18 190 (Ю) 10 км    ясно 
-22.6 -25.4 78 -27  1027.4  -0.3  763  337           
03 14.01.18 200 (Ю) 10 км    ясно 
-22.8 -25.5 79 -27  1027.3  0.1  763  337  -22.8      равномерный
сухой снег
100% 
06 14.01.18 190 (Ю) 20000 м    6/0 верхняя 
[Ci fib]
-19.6 -22.7 76 -22  1027.3  -0.1  763  333  -22.8         
09 14.01.18 250 (З) 20000 м    10/0 средняя, верхняя 
[Ac trans|Ci fib]
-14.8 -19.6 67 -15  1026.7  -0.4  763  326           
12 14.01.18 240 (ЮЗ) 10 км    10/0 средняя, верхняя 
[Ac trans|Ci fib]
-15.5 -19.4 72 -16  1027.6  0.9  763  328           
15 14.01.18 270 (З) 10 км    10/0 верхняя 
[Ci fib]
-16.7 -20.3 74 -19  1028.1  0.4  764  329    -14.3       
18 14.01.18 тихо ()   10 км    10/0 верхняя 
[Ci fib]
-18.6 -21.1 81 -19  1029  0.7  764  332           
21 14.01.18 190 (Ю) 10 км    10/0 верхняя 
[Ci fib]
-20.9 -23.3 81 -24  1029  0.1  764  335           
00 15.01.18 180 (Ю) 10 км    10/0 верхняя 
[Ci fib]
-21.5 -24.1 79 -24  1029.2  0.2  764  336           
03 15.01.18 190 (Ю) 10 км    10/0 средняя, верхняя 
[Ac trans|Ci fib]
-18.7 -21.3 80 -21  1028.3  -0.8  764  332  -21.6      равномерный
сухой снег
100% 
06 15.01.18 200 (Ю) 20000 м    6/0 верхняя 
[Ci fib]
-17 -20 78 -19  1028  -0.1  764  330           
09 15.01.18 270 (З) 20000 м    10/0 средняя 
[Ac und]
-11.3 -15.3 72 -13  1027.6  -0.3  763  322           
12 15.01.18 240 (ЮЗ) 10 км    10/0 средняя 
[Ac und]
-10 -13.8 74 -12  1027.7  0.2  763  321           
15 15.01.18 230 (ЮЗ) 10 км  слаб. снег  10/10 600 м 
[Sc]
-8.9 -12.1 78 -11  1027.3  -0.4  763  319    -8.9  0.0     
18 15.01.18 260 (З) 10 км  {снег}  10/0 средняя 
[Ac und]
-8.1 -11 80 -10  1027  -0.2  763  318           
21 15.01.18 240 (ЮЗ) 10 км  слаб. снег  10/0 средняя 
[Ac und]
-8.8 -10.9 85 -10  1027.2  0.2  763  319           
00 16.01.18 260 (З) 10 км  слаб. снег  10/10 600 м 
[Sc]
-8.9 -10.6 87 -11  1027.4  0.1  763  319           
03 16.01.18 240 (ЮЗ) 10 км  слаб. снег  10/10 600 м 
[Sc]
-9.7 -11.1 89 -11  1026.9  -0.5  763  320  -9.7    0.0  равномерный
сухой снег
100% 
06 16.01.18 240 (ЮЗ) 4000 м  слаб. снег  10/10 600 м 
[Sc]
-9.1 -11.3 84 -11  1026.7  -0.2  763  319           
09 16.01.18 240 (ЮЗ) 4000 м  слаб. снег  10/10 1000 м 
[Sc]
-8.5 -11.1 81 -11  1026.5  0.1  763  318           
12 16.01.18 200 (Ю) 10 км  в посл. час снег  10/10 1000 м 
[Sc]
-8.7 -11.5 80 -10  1026.4  0.1  763  318           
15 16.01.18 250 (З) 10 км    10/10 1000 м 
[Sc]
-8.8 -11.3 82 -9  1026.5  763  319    -8.1  0.0     
Время (UTC), дата Ветер
(°,м/с) 
Видим.   Явления Облачность Т
(°С)
Тd
(°С)
f(%) Тe
(°С)
Pmin
(гПа)
dP
(гПа)
Po
(мм)
O2
(г/м3)
Тmin Tmax R s Состояние
почвы

Для получения пояснительной информации подведите курсор к названию столбца.

ПОГОДА в Кургане - архив

Всё, что Вы хотите узнать о погоде в Кургане - удобно и подробно!

Выберите нужную дату (начиная с 1 января 2015* года) и нажмите кнопку "Найти".
Будут отображены архивные сводки погоды по пункту Курган, начиная с указанной даты.


Отображать данные в формате CSV (для использования в таблицах Excel)


Внимание! Наш архив погоды предназначен исключительно для личного некоммерческого использования в познавательных целях. Если Вам необходимы официальные справки о состоянии погоды (для производственных, юридических, коммерческих и т.п. целей), обращайтесь в органы Росгидромета.

*Примечание: данная дата относится к архиву по метеостанциям СССР (Россия, СНГ, Балтия).
Архив по метеостанциям Зарубежной Европы и Азии (кроме Китая) хранится 10 дней, по другим регионам земного шара (Китай, Африка, Америка, Австралия, Океания) - 1 день.

Курган - район местоположения метеостанции


Название, широта, долгота, высота метеостанции:
Курган 55.5°ш. 65.4°д. 74 м над ур. моря [Российская Федерация]

Дополнительная информация

В oтличие oт бoльшинства пoгoдных сайтoв мы публикуем пoдрoбную метеoинфoрмацию в детальнoм прoфессиoнальнoм фoрмате.

Характеристики температуры и влажнoсти вoздуха измеряются на высoте 2 м в тени вдали oт зданий и деревьев.
Скoрoсть ветра измеряется на высoте 10 м (на урoвне рoста челoвека скoрoсть ветра ниже в 1.5-2 раза). Если метеoстанция нахoдится в гoрoде или в лесу, тo скoрoсть ветра занижена на 2-4 м/с пo сравнению с oткрытым местoм. Скoрoсть ветра над акватoриями крупных рек и oзёр, а также на вершинах хoлмoв на 2-5 м/с выше, чем в oбычных услoвиях.
Атмoсфернoе давление в разных тoчках местнoсти мoжет значительнo oтличаться oт давления на метеoстанции, в зависимoсти oт услoвий рельефа (при пoдъёме на 10 м давление пoнижается примернo на 1 мм рт.ст.).